| time (UTC) | temp F | wind direction | speed MPH | gust MPH | rain 1hr in | rain 24hr in | rain mn in | humidity % | barometer mb |
| 20260506160518 | 48 | 64 | 0.0 | 0.0 | 0.00 | 0.82 | 0.28 | 93 | 1010.7 |
| 20260506160110 | 48 | 64 | 0.0 | 0.0 | 0.00 | 0.82 | 0.28 | 94 | 1010.7 |
| 20260506155522 | 48 | 64 | 0.0 | 0.0 | 0.00 | 0.82 | 0.28 | 94 | 1010.7 |
| 20260506155002 | 47 | 64 | 0.0 | 0.0 | 0.00 | 0.82 | 0.28 | 94 | 1010.6 |
| 20260506154546 | 47 | 64 | 0.0 | 0.0 | 0.00 | 0.82 | 0.28 | 94 | 1010.5 |
| 20260506154026 | 47 | 64 | 0.0 | 0.0 | 0.00 | 0.82 | 0.28 | 94 | 1010.5 |
| 20260506153506 | 47 | 64 | 0.0 | 0.0 | 0.00 | 0.82 | 0.28 | 94 | 1010.3 |
| 20260506153050 | 47 | 64 | 0.0 | 0.0 | 0.00 | 0.82 | 0.28 | 94 | 1010.4 |
| 20260506152530 | 47 | 64 | 0.0 | 0.0 | 0.00 | 0.82 | 0.28 | 94 | 1010.4 |
| 20260506152010 | 47 | 64 | 0.0 | 0.0 | 0.00 | 0.82 | 0.28 | 94 | 1010.2 |
| 20260506151555 | 47 | 64 | 0.0 | 0.0 | 0.00 | 0.82 | 0.28 | 94 | 1010.1 |
| 20260506151037 | 47 | 64 | 0.0 | 0.0 | 0.00 | 0.82 | 0.28 | 94 | 1010.1 |
| 20260506150514 | 47 | 64 | 0.0 | 2.0 | 0.00 | 0.82 | 0.28 | 94 | 1010.1 |
| 20260506145524 | 47 | 64 | 0.0 | 1.0 | 0.00 | 0.82 | 0.28 | 94 | 1010.1 |
| 20260506145105 | 46 | 64 | 0.0 | 1.0 | 0.00 | 0.82 | 0.28 | 94 | 1010.1 |
| 20260506144600 | 46 | 64 | 0.0 | 2.0 | 0.01 | 0.82 | 0.28 | 94 | 1010.2 |
| 20260506144024 | 46 | 64 | 0.0 | 2.0 | 0.01 | 0.82 | 0.28 | 94 | 1010.2 |
| 20260506143504 | 46 | 64 | 0.0 | 4.0 | 0.01 | 0.82 | 0.28 | 94 | 1010.1 |
| 20260506143053 | 46 | 64 | 0.0 | 5.0 | 0.01 | 0.82 | 0.28 | 94 | 1010.1 |
| 20260506142527 | 46 | 65 | 0.0 | 5.0 | 0.02 | 0.82 | 0.28 | 94 | 1010.1 |
| 20260506142008 | 46 | 65 | 0.0 | 2.0 | 0.02 | 0.82 | 0.28 | 94 | 1010.2 |
| 20260506141551 | 46 | 65 | 0.0 | 0.0 | 0.02 | 0.82 | 0.28 | 94 | 1010.2 |
| 20260506141033 | 46 | 65 | 0.0 | 2.0 | 0.02 | 0.82 | 0.28 | 94 | 1010.2 |
| 20260506140511 | 46 | 65 | 0.0 | 2.0 | 0.02 | 0.82 | 0.28 | 94 | 1010.1 |
| 20260506140107 | 46 | 65 | 0.0 | 1.0 | 0.02 | 0.82 | 0.28 | 94 | 1010.1 |
| 20260506135514 | 46 | 65 | 0.0 | 2.0 | 0.02 | 0.82 | 0.28 | 94 | 1010.0 |
| 20260506135101 | 46 | 65 | 0.0 | 2.0 | 0.02 | 0.82 | 0.28 | 94 | 1010.0 |
| 20260506134538 | 46 | 65 | 0.0 | 1.0 | 0.01 | 0.81 | 0.28 | 94 | 1010.0 |
| 20260506134018 | 46 | 65 | 0.0 | 0.0 | 0.01 | 0.81 | 0.28 | 94 | 1010.0 |
| 20260506133603 | 46 | 65 | 0.0 | 1.0 | 0.01 | 0.81 | 0.28 | 94 | 1009.9 |
| 20260506133056 | 46 | 65 | 0.0 | 4.0 | 0.01 | 0.81 | 0.28 | 94 | 1009.8 |
| 20260506132522 | 46 | 65 | 0.0 | 4.0 | 0.00 | 0.80 | 0.27 | 94 | 1009.8 |
| 20260506132002 | 46 | 65 | 0.0 | 4.0 | 0.01 | 0.80 | 0.27 | 94 | 1009.8 |
| 20260506131547 | 46 | 65 | 0.0 | 4.0 | 0.01 | 0.80 | 0.27 | 94 | 1009.7 |
| 20260506131025 | 46 | 65 | 0.0 | 1.0 | 0.01 | 0.80 | 0.27 | 94 | 1009.7 |
| 20260506130505 | 46 | 65 | 0.0 | 0.0 | 0.01 | 0.80 | 0.27 | 94 | 1009.6 |
| 20260506130128 | 46 | 65 | 0.0 | 0.0 | 0.01 | 0.80 | 0.27 | 94 | 1009.6 |
| 20260506125510 | 46 | 65 | 0.0 | 0.0 | 0.01 | 0.80 | 0.27 | 94 | 1009.4 |
| 20260506125054 | 46 | 65 | 0.0 | 0.0 | 0.01 | 0.80 | 0.27 | 94 | 1009.4 |
| 20260506124535 | 46 | 65 | 0.0 | 0.0 | 0.01 | 0.80 | 0.27 | 94 | 1009.4 |
| 20260506124014 | 46 | 65 | 0.0 | 1.0 | 0.01 | 0.80 | 0.27 | 94 | 1009.4 |
| 20260506123558 | 46 | 65 | 0.0 | 1.0 | 0.02 | 0.80 | 0.27 | 94 | 1009.4 |
| 20260506123044 | 46 | 65 | 0.0 | 1.0 | 0.02 | 0.80 | 0.27 | 94 | 1009.4 |
| 20260506122517 | 46 | 65 | 0.0 | 0.0 | 0.02 | 0.80 | 0.27 | 94 | 1009.6 |
| 20260506122101 | 46 | 65 | 0.0 | 0.0 | 0.01 | 0.79 | 0.26 | 94 | 1009.6 |
| 20260506121551 | 46 | 65 | 0.0 | 0.0 | 0.01 | 0.79 | 0.26 | 94 | 1009.4 |
| 20260506121022 | 46 | 65 | 0.0 | 0.0 | 0.01 | 0.79 | 0.26 | 94 | 1009.3 |
| 20260506120501 | 46 | 65 | 0.0 | 1.0 | 0.02 | 0.79 | 0.26 | 94 | 1009.2 |
| 20260506120044 | 46 | 65 | 0.0 | 1.0 | 0.02 | 0.79 | 0.26 | 94 | 1009.1 |
| 20260506115514 | 46 | 65 | 0.0 | 0.0 | 0.02 | 0.79 | 0.26 | 94 | 1008.8 |
| 20260506115050 | 46 | 65 | 0.0 | 1.0 | 0.02 | 0.79 | 0.26 | 94 | 1008.8 |
| 20260506114530 | 46 | 65 | 0.0 | 1.0 | 0.02 | 0.79 | 0.26 | 94 | 1008.9 |
| 20260506114014 | 46 | 65 | 0.0 | 1.0 | 0.02 | 0.79 | 0.26 | 94 | 1008.7 |
| 20260506113554 | 46 | 65 | 0.0 | 1.0 | 0.01 | 0.78 | 0.25 | 94 | 1008.5 |
| 20260506113038 | 46 | 65 | 0.0 | 0.0 | 0.02 | 0.78 | 0.25 | 94 | 1008.6 |
| 20260506112513 | 46 | 65 | 0.0 | 0.0 | 0.02 | 0.78 | 0.25 | 94 | 1008.7 |
| 20260506112058 | 46 | 65 | 0.0 | 0.0 | 0.02 | 0.78 | 0.25 | 94 | 1008.7 |
| 20260506111538 | 46 | 65 | 0.0 | 0.0 | 0.02 | 0.78 | 0.25 | 94 | 1008.8 |
| 20260506111018 | 46 | 65 | 0.0 | 0.0 | 0.02 | 0.78 | 0.25 | 94 | 1008.7 |
| 20260506110602 | 46 | 65 | 0.0 | 0.0 | 0.01 | 0.77 | 0.24 | 94 | 1008.7 |
| 20260506110044 | 46 | 65 | 0.0 | 0.0 | 0.01 | 0.77 | 0.24 | 94 | 1009.0 |
| 20260506105505 | 46 | 65 | 0.0 | 0.0 | 0.02 | 0.77 | 0.24 | 94 | 1009.0 |
| 20260506105048 | 46 | 65 | 0.0 | 0.0 | 0.02 | 0.77 | 0.24 | 94 | 1009.0 |
| 20260506104530 | 46 | 65 | 0.0 | 0.0 | 0.02 | 0.77 | 0.24 | 94 | 1009.0 |
| 20260506104008 | 46 | 65 | 0.0 | 0.0 | 0.03 | 0.77 | 0.24 | 94 | 1009.1 |
| 20260506103551 | 46 | 65 | 0.0 | 0.0 | 0.03 | 0.77 | 0.24 | 94 | 1009.1 |
| 20260506103032 | 46 | 65 | 0.0 | 0.0 | 0.02 | 0.76 | 0.23 | 94 | 1009.2 |
| 20260506102511 | 46 | 65 | 0.0 | 1.0 | 0.02 | 0.76 | 0.23 | 94 | 1009.0 |
| 20260506102059 | 46 | 65 | 0.0 | 1.0 | 0.02 | 0.76 | 0.23 | 94 | 1008.7 |
| 20260506101536 | 46 | 65 | 0.0 | 0.0 | 0.02 | 0.76 | 0.23 | 94 | 1008.5 |
| 20260506101015 | 46 | 65 | 0.0 | 0.0 | 0.03 | 0.76 | 0.23 | 94 | 1008.5 |
| 20260506100558 | 46 | 65 | 0.0 | 0.0 | 0.03 | 0.76 | 0.23 | 94 | 1008.6 |
| 20260506100043 | 46 | 65 | 0.0 | 0.0 | 0.03 | 0.76 | 0.23 | 94 | 1008.6 |
| 20260506095604 | 46 | 65 | 0.0 | 0.0 | 0.03 | 0.75 | 0.22 | 94 | 1009.0 |
| 20260506095043 | 46 | 65 | 0.0 | 1.0 | 0.03 | 0.75 | 0.22 | 94 | 1009.1 |
| 20260506094526 | 46 | 65 | 0.0 | 1.0 | 0.03 | 0.74 | 0.21 | 94 | 1009.0 |
| 20260506094002 | 46 | 65 | 0.0 | 0.0 | 0.03 | 0.74 | 0.21 | 94 | 1009.2 |
| 20260506093547 | 46 | 65 | 0.0 | 0.0 | 0.04 | 0.74 | 0.21 | 94 | 1009.0 |
| 20260506093032 | 46 | 65 | 0.0 | 1.0 | 0.04 | 0.74 | 0.21 | 94 | 1009.0 |
| 20260506092507 | 47 | 65 | 0.0 | 0.0 | 0.05 | 0.74 | 0.21 | 94 | 1008.9 |
| 20260506092053 | 47 | 65 | 0.0 | 0.0 | 0.05 | 0.74 | 0.21 | 94 | 1009.0 |
| 20260506091531 | 47 | 65 | 0.0 | 0.0 | 0.04 | 0.73 | 0.20 | 94 | 1009.0 |
| 20260506091015 | 47 | 65 | 0.0 | 1.0 | 0.04 | 0.73 | 0.20 | 94 | 1009.1 |
| 20260506090554 | 47 | 65 | 0.0 | 1.0 | 0.05 | 0.73 | 0.20 | 94 | 1009.2 |
| 20260506090017 | 47 | 65 | 0.0 | 2.0 | 0.04 | 0.72 | 0.19 | 94 | 1009.3 |
| 20260506085602 | 47 | 65 | 0.0 | 2.0 | 0.04 | 0.72 | 0.19 | 94 | 1009.2 |
| 20260506085044 | 47 | 65 | 0.0 | 2.0 | 0.04 | 0.72 | 0.19 | 94 | 1009.3 |
| 20260506084521 | 46 | 65 | 0.0 | 2.0 | 0.04 | 0.71 | 0.18 | 94 | 1009.3 |
| 20260506084002 | 46 | 65 | 0.0 | 1.0 | 0.05 | 0.71 | 0.18 | 94 | 1009.3 |
| 20260506083545 | 46 | 65 | 0.0 | 1.0 | 0.04 | 0.70 | 0.17 | 94 | 1009.3 |
| 20260506083031 | 46 | 65 | 0.0 | 1.0 | 0.04 | 0.70 | 0.17 | 94 | 1009.2 |
| 20260506082508 | 46 | 65 | 0.0 | 1.0 | 0.04 | 0.69 | 0.16 | 94 | 1008.9 |
| 20260506082049 | 46 | 65 | 0.0 | 0.0 | 0.04 | 0.69 | 0.16 | 93 | 1008.8 |
| 20260506081529 | 47 | 65 | 0.0 | 5.0 | 0.05 | 0.69 | 0.16 | 93 | 1008.9 |
| 20260506081009 | 47 | 65 | 0.0 | 5.0 | 0.05 | 0.69 | 0.16 | 93 | 1009.1 |
| 20260506080557 | 47 | 79 | 0.0 | 2.0 | 0.04 | 0.68 | 0.15 | 94 | 1008.9 |
| 20260506073016 | 47 | 79 | 0.0 | 4.0 | 0.07 | 0.66 | 0.13 | 93 | 1009.1 |
| 20260506072602 | 47 | 79 | 0.0 | 4.0 | 0.06 | 0.65 | 0.12 | 93 | 1009.1 |
| 20260506072040 | 47 | 84 | 0.0 | 4.0 | 0.07 | 0.65 | 0.12 | 93 | 1009.2 |
| 20260506071520 | 47 | 84 | 0.0 | 4.0 | 0.06 | 0.64 | 0.11 | 93 | 1009.1 |
| 20260506071103 | 47 | 84 | 0.0 | 4.0 | 0.06 | 0.64 | 0.11 | 93 | 1009.0 |
| 20260506070543 | 47 | 84 | 0.0 | 1.0 | 0.07 | 0.64 | 0.11 | 93 | 1009.2 |
| 20260506062036 | 47 | 280 | 0.0 | 0.0 | 0.03 | 0.57 | 0.05 | 93 | 1009.2 |
| 20260506061516 | 47 | 280 | 0.0 | 0.0 | 0.03 | 0.57 | 0.05 | 93 | 1009.5 |
| 20260506061100 | 47 | 280 | 0.0 | 0.0 | 0.03 | 0.57 | 0.05 | 93 | 1009.3 |
| 20260506060539 | 47 | 280 | 0.0 | 0.0 | 0.02 | 0.56 | 0.04 | 93 | 1009.2 |
| 20260506051057 | 47 | 280 | 0.0 | 0.0 | 0.02 | 0.55 | 0.02 | 93 | 1010.0 |
| 20260506050537 | 47 | 280 | 0.0 | 0.0 | 0.02 | 0.55 | 0.02 | 93 | 1010.0 |
| 20260506050121 | 47 | 280 | 0.0 | 0.0 | 0.02 | 0.55 | 0.02 | 93 | 1010.0 |
| 20260506045007 | 47 | 280 | 0.0 | 0.0 | 0.01 | 0.54 | 0.01 | 93 | 1009.8 |
| 20260506044553 | 47 | 280 | 0.0 | 0.0 | 0.01 | 0.54 | 0.01 | 93 | 1009.7 |
| 20260506044031 | 47 | 280 | 0.0 | 0.0 | 0.01 | 0.54 | 0.01 | 93 | 1009.6 |
| 20260506043513 | 47 | 280 | 0.0 | 0.0 | 0.00 | 0.53 | 0.00 | 93 | 1009.5 |
| 20260506043100 | 47 | 280 | 0.0 | 0.0 | 0.00 | 0.53 | 0.00 | 93 | 1009.4 |
| 20260506042536 | 47 | 280 | 0.0 | 0.0 | 0.00 | 0.53 | 0.00 | 93 | 1009.1 |
| 20260506042016 | 47 | 280 | 0.0 | 0.0 | 0.00 | 0.53 | 0.00 | 93 | 1009.1 |
| 20260506041553 | 47 | 280 | 0.0 | 0.0 | 0.00 | 0.53 | 0.00 | 93 | 1009.2 |
| 20260506041033 | 47 | 280 | 0.0 | 0.0 | 0.01 | 0.53 | 0.53 | 93 | 1009.0 |
| 20260506040513 | 47 | 280 | 0.0 | 0.0 | 0.01 | 0.53 | 0.53 | 93 | 1009.1 |
| 20260506040058 | 47 | 280 | 0.0 | 0.0 | 0.01 | 0.53 | 0.53 | 93 | 1009.0 |
| 20260506035523 | 48 | 280 | 0.0 | 0.0 | 0.02 | 0.53 | 0.53 | 93 | 1009.1 |
| 20260506035104 | 48 | 280 | 0.0 | 0.0 | 0.02 | 0.53 | 0.53 | 93 | 1009.1 |
| 20260506034602 | 48 | 280 | 0.0 | 0.0 | 0.02 | 0.53 | 0.53 | 93 | 1009.1 |
| 20260506034023 | 48 | 280 | 0.0 | 0.0 | 0.02 | 0.53 | 0.53 | 93 | 1009.3 |
| 20260506033507 | 48 | 280 | 0.0 | 0.0 | 0.03 | 0.53 | 0.53 | 93 | 1009.2 |
| 20260506033048 | 48 | 280 | 0.0 | 0.0 | 0.03 | 0.53 | 0.53 | 93 | 1009.2 |
| 20260506032528 | 48 | 280 | 0.0 | 0.0 | 0.03 | 0.53 | 0.53 | 93 | 1009.2 |
| 20260506032008 | 48 | 280 | 0.0 | 0.0 | 0.04 | 0.53 | 0.53 | 93 | 1009.4 |
| 20260506031554 | 48 | 280 | 0.0 | 0.0 | 0.04 | 0.53 | 0.53 | 93 | 1009.4 |
| 20260506031032 | 48 | 280 | 0.0 | 0.0 | 0.03 | 0.52 | 0.52 | 93 | 1009.3 |
| 20260506030511 | 48 | 280 | 0.0 | 0.0 | 0.04 | 0.52 | 0.52 | 93 | 1009.4 |
| 20260506030057 | 48 | 280 | 0.0 | 0.0 | 0.04 | 0.52 | 0.52 | 93 | 1009.6 |
| 20260506025518 | 48 | 280 | 0.0 | 0.0 | 0.04 | 0.51 | 0.51 | 93 | 1009.6 |
| 20260506025100 | 48 | 280 | 0.0 | 0.0 | 0.04 | 0.51 | 0.51 | 93 | 1009.7 |
| 20260506024549 | 49 | 280 | 0.0 | 0.0 | 0.04 | 0.51 | 0.51 | 93 | 1009.8 |
| 20260506024021 | 49 | 280 | 0.0 | 0.0 | 0.05 | 0.51 | 0.51 | 93 | 1009.9 |
| 20260506023500 | 49 | 280 | 0.0 | 0.0 | 0.04 | 0.50 | 0.50 | 93 | 1009.8 |
| 20260506023054 | 49 | 280 | 0.0 | 0.0 | 0.05 | 0.50 | 0.50 | 93 | 1009.7 |
| 20260506022524 | 49 | 280 | 0.0 | 0.0 | 0.05 | 0.50 | 0.50 | 93 | 1009.8 |
| 20260506022006 | 49 | 280 | 0.0 | 0.0 | 0.06 | 0.49 | 0.49 | 93 | 1009.7 |
| 20260506021548 | 49 | 280 | 0.0 | 0.0 | 0.07 | 0.49 | 0.49 | 93 | 1009.8 |
| 20260506021027 | 49 | 280 | 0.0 | 0.0 | 0.07 | 0.49 | 0.49 | 93 | 1009.6 |
| 20260506020507 | 49 | 280 | 0.0 | 0.0 | 0.07 | 0.48 | 0.48 | 92 | 1009.6 |
| 20260506020055 | 49 | 280 | 0.0 | 0.0 | 0.08 | 0.48 | 0.48 | 92 | 1009.8 |
| 20260506015514 | 49 | 280 | 0.0 | 0.0 | 0.08 | 0.47 | 0.47 | 93 | 1009.7 |
| 20260506015102 | 49 | 280 | 0.0 | 0.0 | 0.09 | 0.47 | 0.47 | 93 | 1009.8 |
| 20260506014538 | 49 | 280 | 0.0 | 0.0 | 0.09 | 0.47 | 0.47 | 93 | 1009.8 |
| 20260506014017 | 49 | 280 | 0.0 | 0.0 | 0.09 | 0.46 | 0.46 | 93 | 1009.9 |
| 20260506013601 | 49 | 280 | 0.0 | 0.0 | 0.09 | 0.46 | 0.46 | 92 | 1010.0 |
| 20260506013042 | 49 | 280 | 0.0 | 0.0 | 0.09 | 0.45 | 0.45 | 92 | 1009.9 |
| 20260506012520 | 49 | 280 | 0.0 | 0.0 | 0.09 | 0.44 | 0.44 | 93 | 1009.8 |
| 20260506012106 | 49 | 280 | 0.0 | 0.0 | 0.09 | 0.44 | 0.44 | 93 | 1009.8 |
| 20260506011545 | 49 | 280 | 0.0 | 0.0 | 0.08 | 0.42 | 0.42 | 92 | 1009.7 |
| 20260506011023 | 49 | 280 | 0.0 | 0.0 | 0.09 | 0.42 | 0.42 | 92 | 1009.5 |
| 20260506010502 | 49 | 280 | 0.0 | 0.0 | 0.09 | 0.41 | 0.41 | 92 | 1009.5 |
| 20260506010055 | 49 | 280 | 0.0 | 0.0 | 0.09 | 0.40 | 0.40 | 92 | 1009.5 |
| 20260506005508 | 49 | 280 | 0.0 | 0.0 | 0.08 | 0.39 | 0.39 | 92 | 1009.4 |
| 20260506005050 | 49 | 280 | 0.0 | 0.0 | 0.08 | 0.38 | 0.38 | 92 | 1009.5 |
| 20260506004532 | 49 | 280 | 0.0 | 0.0 | 0.07 | 0.37 | 0.37 | 92 | 1009.6 |
| 20260506004010 | 49 | 280 | 0.0 | 0.0 | 0.08 | 0.37 | 0.37 | 92 | 1009.1 |
| 20260506003554 | 49 | 280 | 0.0 | 0.0 | 0.08 | 0.37 | 0.37 | 92 | 1009.4 |
| 20260506003035 | 49 | 280 | 0.0 | 0.0 | 0.08 | 0.36 | 0.36 | 92 | 1009.5 |
| 20260506002518 | 49 | 280 | 0.0 | 0.0 | 0.08 | 0.35 | 0.35 | 92 | 1009.6 |
| 20260506002058 | 49 | 280 | 0.0 | 0.0 | 0.08 | 0.35 | 0.35 | 92 | 1009.6 |
| 20260506001541 | 49 | 280 | 0.0 | 0.0 | 0.08 | 0.34 | 0.34 | 92 | 1009.3 |
| 20260506001019 | 49 | 280 | 0.0 | 0.0 | 0.08 | 0.33 | 0.33 | 91 | 1009.2 |
| 20260506000604 | 49 | 280 | 0.0 | 0.0 | 0.08 | 0.32 | 0.32 | 91 | 1009.1 |
| 20260506000043 | 49 | 280 | 0.0 | 0.0 | 0.07 | 0.31 | 0.31 | 92 | 1009.1 |
| 20260505235504 | 49 | 280 | 0.0 | 0.0 | 0.08 | 0.31 | 0.31 | 92 | 1008.8 |
| 20260505235050 | 49 | 280 | 0.0 | 0.0 | 0.08 | 0.30 | 0.30 | 91 | 1009.0 |
| 20260505234529 | 49 | 280 | 0.0 | 0.0 | 0.09 | 0.30 | 0.28 | 91 | 1008.9 |
| 20260505234009 | 49 | 280 | 0.0 | 1.0 | 0.08 | 0.28 | 0.28 | 91 | 1008.7 |
| 20260505233552 | 49 | 280 | 0.0 | 1.0 | 0.09 | 0.28 | 0.28 | 91 | 1008.7 |
| 20260505233039 | 49 | 280 | 0.0 | 0.0 | 0.08 | 0.28 | 0.28 | 91 | 1008.7 |
| 20260505232511 | 49 | 280 | 0.0 | 0.0 | 0.08 | 0.27 | 0.27 | 91 | 1008.8 |
| 20260505232053 | 49 | 280 | 0.0 | 0.0 | 0.08 | 0.27 | 0.27 | 91 | 1008.7 |
| 20260505231534 | 49 | 280 | 0.0 | 0.0 | 0.08 | 0.26 | 0.26 | 91 | 1008.7 |
| 20260505231013 | 49 | 280 | 0.0 | 0.0 | 0.08 | 0.25 | 0.25 | 91 | 1008.4 |
| 20260505230557 | 49 | 280 | 0.0 | 0.0 | 0.08 | 0.24 | 0.24 | 91 | 1008.5 |
| 20260505230025 | 49 | 280 | 0.0 | 0.0 | 0.10 | 0.24 | 0.24 | 90 | 1008.7 |
| 20260505225603 | 49 | 280 | 0.0 | 0.0 | 0.10 | 0.23 | 0.23 | 90 | 1008.7 |
| 20260505225043 | 49 | 280 | 0.0 | 0.0 | 0.11 | 0.22 | 0.22 | 90 | 1008.7 |
| 20260505224522 | 49 | 280 | 0.0 | 2.0 | 0.11 | 0.21 | 0.21 | 90 | 1008.6 |
| 20260505224003 | 49 | 280 | 0.0 | 4.0 | 0.12 | 0.21 | 0.21 | 90 | 1008.7 |
| 20260505223547 | 49 | 280 | 0.0 | 4.0 | 0.12 | 0.20 | 0.20 | 90 | 1008.9 |
| 20260505223028 | 49 | 280 | 0.0 | 1.0 | 0.13 | 0.20 | 0.20 | 90 | 1009.0 |
| 20260505222508 | 49 | 280 | 0.0 | 5.0 | 0.13 | 0.19 | 0.19 | 90 | 1009.1 |
| 20260505222051 | 49 | 280 | 1.0 | 5.0 | 0.13 | 0.18 | 0.18 | 90 | 1009.1 |
| 20260505221530 | 49 | 286 | 1.0 | 5.0 | 0.14 | 0.18 | 0.18 | 89 | 1009.1 |
| 20260505221009 | 49 | 287 | 1.0 | 5.0 | 0.13 | 0.17 | 0.17 | 89 | 1009.0 |
| 20260505220553 | 49 | 264 | 1.0 | 5.0 | 0.12 | 0.15 | 0.15 | 89 | 1009.0 |
| 20260505220019 | 49 | 263 | 0.0 | 4.0 | 0.12 | 0.14 | 0.14 | 89 | 1009.0 |
| 20260505215603 | 49 | 263 | 0.0 | 2.0 | 0.12 | 0.13 | 0.13 | 89 | 1008.8 |
| 20260505215039 | 49 | 263 | 0.0 | 1.0 | 0.10 | 0.11 | 0.11 | 88 | 1008.7 |
| 20260505214521 | 49 | 263 | 0.0 | 2.0 | 0.09 | 0.10 | 0.10 | 88 | 1008.7 |
| 20260505214104 | 50 | 263 | 0.0 | 4.0 | 0.08 | 0.09 | 0.09 | 88 | 1008.8 |
| 20260505213543 | 50 | 263 | 0.0 | 6.0 | 0.08 | 0.08 | 0.08 | 87 | 1008.7 |
| 20260505213027 | 50 | 248 | 2.0 | 5.0 | 0.07 | 0.07 | 0.07 | 87 | 1008.6 |
| 20260505212503 | 50 | 302 | 0.0 | 4.0 | 0.06 | 0.06 | 0.06 | 86 | 1008.5 |
| 20260505212048 | 50 | 302 | 0.0 | 4.0 | 0.05 | 0.05 | 0.05 | 86 | 1008.5 |
| 20260505211528 | 50 | 301 | 0.0 | 8.0 | 0.04 | 0.04 | 0.04 | 84 | 1008.3 |
| 20260505211007 | 51 | 273 | 0.0 | 11.0 | 0.04 | 0.04 | 0.04 | 83 | 1007.9 |
| 20260505210550 | 51 | 273 | 0.0 | 11.0 | 0.03 | 0.03 | 0.03 | 82 | 1007.9 |
| 20260505210014 | 51 | 269 | 1.0 | 9.0 | 0.02 | 0.02 | 0.02 | 81 | 1008.2 |
| 20260505205557 | 52 | 253 | 2.0 | 10.0 | 0.01 | 0.01 | 0.01 | 80 | 1008.1 |
| 20260505205037 | 52 | 314 | 1.0 | 10.0 | 0.01 | 0.01 | 0.01 | 78 | 1007.9 |
| 20260505204516 | 53 | 277 | 2.0 | 11.0 | 0.01 | 0.01 | 0.01 | 76 | 1007.6 |
| 20260505204100 | 54 | 313 | 5.0 | 12.0 | 0.01 | 0.01 | 0.01 | 74 | 1007.8 |
| 20260505203541 | 55 | 315 | 3.0 | 12.0 | 0.00 | 0.00 | 0.00 | 72 | 1007.5 |
| 20260505203029 | 56 | 314 | 2.0 | 11.0 | 0.00 | 0.00 | 0.00 | 70 | 1007.2 |
| 20260505202604 | 57 | 308 | 3.0 | 10.0 | 0.00 | 0.00 | 0.00 | 68 | 1007.1 |
| 20260505202047 | 58 | 287 | 4.0 | 10.0 | 0.00 | 0.00 | 0.00 | 65 | 1006.9 |
| 20260505201524 | 59 | 284 | 0.0 | 9.0 | 0.00 | 0.00 | 0.00 | 65 | 1006.6 |
| 20260505201003 | 59 | 248 | 2.0 | 9.0 | 0.00 | 0.00 | 0.00 | 63 | 1006.3 |
| 20260505200548 | 60 | 284 | 0.0 | 10.0 | 0.00 | 0.00 | 0.00 | 64 | 1006.3 |
| 20260505200010 | 60 | 281 | 4.0 | 10.0 | 0.00 | 0.00 | 0.00 | 64 | 1006.3 |
| 20260505195553 | 60 | 283 | 2.0 | 7.0 | 0.00 | 0.00 | 0.00 | 65 | 1006.2 |
| 20260505195033 | 60 | 307 | 0.0 | 9.0 | 0.00 | 0.00 | 0.00 | 67 | 1006.1 |
| 20260505194513 | 60 | 283 | 0.0 | 6.0 | 0.00 | 0.00 | 0.00 | 67 | 1006.0 |
| 20260505194057 | 60 | 282 | 1.0 | 6.0 | 0.00 | 0.00 | 0.00 | 68 | 1005.9 |
| 20260505193538 | 61 | 283 | 0.0 | 5.0 | 0.00 | 0.00 | 0.00 | 69 | 1005.8 |
| 20260505193018 | 60 | 283 | 0.0 | 5.0 | 0.00 | 0.00 | 0.00 | 69 | 1005.8 |
| 20260505192601 | 60 | 232 | 0.0 | 2.0 | 0.00 | 0.00 | 0.00 | 70 | 1005.8 |
| 20260505192041 | 60 | 232 | 0.0 | 2.0 | 0.00 | 0.00 | 0.00 | 69 | 1005.8 |
| 20260505191522 | 60 | 232 | 0.0 | 2.0 | 0.00 | 0.00 | 0.00 | 69 | 1005.9 |
| 20260505191001 | 60 | 232 | 0.0 | 4.0 | 0.00 | 0.00 | 0.00 | 69 | 1006.0 |
| 20260505190548 | 60 | 232 | 0.0 | 5.0 | 0.00 | 0.00 | 0.00 | 69 | 1006.0 |
| 20260505190003 | 60 | 232 | 1.0 | 5.0 | 0.00 | 0.00 | 0.00 | 69 | 1005.9 |
| 20260505185547 | 60 | 308 | 0.0 | 5.0 | 0.00 | 0.00 | 0.00 | 68 | 1005.9 |
| 20260505185027 | 60 | 311 | 0.0 | 6.0 | 0.00 | 0.00 | 0.00 | 68 | 1005.8 |
| 20260505184507 | 60 | 312 | 1.0 | 9.0 | 0.00 | 0.00 | 0.00 | 68 | 1006.0 |
| 20260505184051 | 61 | 288 | 3.0 | 9.0 | 0.00 | 0.00 | 0.00 | 67 | 1006.0 |
| 20260505183531 | 61 | 328 | 0.0 | 10.0 | 0.00 | 0.00 | 0.00 | 68 | 1005.8 |
| 20260505183011 | 61 | 272 | 1.0 | 10.0 | 0.00 | 0.00 | 0.00 | 68 | 1005.9 |
| 20260505182555 | 61 | 330 | 0.0 | 8.0 | 0.00 | 0.00 | 0.00 | 69 | 1005.9 |
| 20260505182034 | 61 | 277 | 0.0 | 6.0 | 0.00 | 0.00 | 0.00 | 69 | 1005.5 |
| 20260505181514 | 61 | 266 | 1.0 | 7.0 | 0.00 | 0.00 | 0.00 | 68 | 1005.6 |
| 20260505181101 | 61 | 292 | 1.0 | 6.0 | 0.00 | 0.00 | 0.00 | 69 | 1005.6 |
| 20260505180538 | 61 | 289 | 1.0 | 6.0 | 0.00 | 0.00 | 0.00 | 68 | 1005.5 |
| 20260505180122 | 61 | 243 | 0.0 | 8.0 | 0.00 | 0.00 | 0.00 | 69 | 1005.5 |
| 20260505175544 | 62 | 74 | 3.0 | 8.0 | 0.00 | 0.00 | 0.00 | 69 | 1005.3 |
| 20260505175028 | 62 | 250 | 1.0 | 8.0 | 0.00 | 0.00 | 0.00 | 69 | 1005.2 |
| 20260505174504 | 62 | 302 | 4.0 | 9.0 | 0.00 | 0.00 | 0.00 | 67 | 1005.1 |
| 20260505174048 | 63 | 277 | 2.0 | 8.0 | 0.00 | 0.00 | 0.00 | 66 | 1005.0 |
| 20260505173529 | 64 | 7 | 2.0 | 12.0 | 0.00 | 0.00 | 0.00 | 66 | 1005.0 |
| 20260505173008 | 65 | 270 | 6.0 | 14.0 | 0.00 | 0.00 | 0.00 | 65 | 1004.9 |
| 20260505172554 | 66 | 277 | 8.0 | 14.0 | 0.00 | 0.00 | 0.00 | 66 | 1004.9 |
| 20260505172032 | 66 | 269 | 6.0 | 13.0 | 0.00 | 0.00 | 0.00 | 66 | 1004.7 |
| 20260505171512 | 66 | 282 | 8.0 | 13.0 | 0.00 | 0.00 | 0.00 | 65 | 1004.7 |
| 20260505171056 | 66 | 269 | 3.0 | 13.0 | 0.00 | 0.00 | 0.00 | 65 | 1004.6 |
| 20260505170537 | 67 | 273 | 7.0 | 18.0 | 0.00 | 0.00 | 0.00 | 65 | 1004.5 |
| 20260505170123 | 66 | 256 | 7.0 | 18.0 | 0.00 | 0.00 | 0.00 | 65 | 1004.4 |
| 20260505165542 | 67 | 253 | 6.0 | 23.0 | 0.00 | 0.00 | 0.00 | 66 | 1004.5 |
| 20260505165022 | 67 | 257 | 8.0 | 23.0 | 0.00 | 0.00 | 0.00 | 65 | 1004.5 |
| 20260505164502 | 67 | 241 | 4.0 | 21.0 | 0.00 | 0.00 | 0.00 | 65 | 1004.5 |
| 20260505164046 | 67 | 245 | 9.0 | 21.0 | 0.00 | 0.00 | 0.00 | 63 | 1004.4 |
| 20260505163527 | 67 | 279 | 7.0 | 19.0 | 0.00 | 0.00 | 0.00 | 63 | 1004.3 |
| 20260505163010 | 67 | 228 | 7.0 | 16.0 | 0.00 | 0.00 | 0.00 | 63 | 1004.4 |
| 20260505162550 | 67 | 262 | 10.0 | 21.0 | 0.00 | 0.00 | 0.00 | 63 | 1004.0 |
| 20260505162030 | 68 | 252 | 10.0 | 21.0 | 0.00 | 0.00 | 0.00 | 62 | 1004.2 |
| 20260505161510 | 67 | 256 | 5.0 | 15.0 | 0.00 | 0.00 | 0.00 | 63 | 1003.7 |
| 20260505161054 | 67 | 217 | 4.0 | 18.0 | 0.00 | 0.00 | 0.00 | 64 | 1003.6 |